Location: Barrio Las Umbrías
(40.4173°N, 4.8685°W)
Time: 14:09:24
(UTC+00:00)

H-2A R/B - Pass Details

Date: 17 August 2022
Orbit: 575 x 653 km, 98.5° (Epoch: 28 September)

Event Time Altitude Azimuth Distance (km) Brightness Sun altitude
Rises 19:44:45 0° 33° (NNE) 2,887 5.4 -6.3°
Reaches altitude 10° 19:47:53 10° 58° (ENE) 1,958 4.3 -6.8°
Maximum altitude 19:50:14 15° 92° (E) 1,664 3.7 -7.2°
Drops below altitude 10° 19:52:33 10° 126° (SE) 1,924 3.9 -7.6°
Enters shadow 19:53:02 - 131° (SE) 2,034 4.1 -7.7°
